WZZ227 LEMD-EGLL

Flight info

Callsign WZZ227
Flight time N/A
Altitude 34000
Route SIE N858 DGO N867 NENEM DCT DIDIG UP87 ROXOG
Aircraft A320/M-SDE3FGHIRWY/LB1

Departure

Time 2026-04-30 19:05
Airport Adolfo Suárez Madrid–Barajas Airport (LEMD)

Arrival

Time N/A
Airport London Heathrow Airport (EGLL)
Time Latitude Longitude Altitude Speed Heading
2026-04-30 18:12 40.46237 -3.56947 1971 ft 0 kts 311°
2026-04-30 18:37 40.46236 -3.56945 1971 ft 3 kts 311°
2026-04-30 18:37 40.46218 -3.56920 1976 ft 4 kts 318°
2026-04-30 18:37 40.46197 -3.56898 1976 ft 4 kts 334°
2026-04-30 18:37 40.46174 -3.56891 1975 ft 4 kts 26°
2026-04-30 18:38 40.46168 -3.56895 1973 ft 0 kts 41°
2026-04-30 18:45 40.46181 -3.56880 1975 ft 3 kts 41°
2026-04-30 18:45 40.46202 -3.56857 1974 ft 5 kts 37°
2026-04-30 18:45 40.46233 -3.56830 1974 ft 6 kts 32°
2026-04-30 18:46 40.46273 -3.56799 1973 ft 7 kts 30°
2026-04-30 18:46 40.46323 -3.56768 1974 ft 9 kts 23°
2026-04-30 18:46 40.46360 -3.56747 1973 ft 6 kts 23°
2026-04-30 18:46 40.46402 -3.56724 1972 ft 7 kts 20°
2026-04-30 18:47 40.46455 -3.56719 1972 ft 8 kts
2026-04-30 18:47 40.46515 -3.56715 1972 ft 7 kts
2026-04-30 18:47 40.46570 -3.56711 1975 ft 8 kts
2026-04-30 18:47 40.46617 -3.56708 1973 ft 7 kts
2026-04-30 18:48 40.46660 -3.56705 1973 ft 6 kts
2026-04-30 18:48 40.46704 -3.56702 1973 ft 7 kts
2026-04-30 18:48 40.46757 -3.56697 1974 ft 8 kts
2026-04-30 18:48 40.46818 -3.56687 1980 ft 10 kts 11°
2026-04-30 18:49 40.46872 -3.56661 1977 ft 8 kts 42°
2026-04-30 18:49 40.46883 -3.56588 1975 ft 9 kts 92°
2026-04-30 18:49 40.46884 -3.56499 1975 ft 10 kts 77°
2026-04-30 18:49 40.46942 -3.56452 1975 ft 11 kts
2026-04-30 18:50 40.47004 -3.56452 1978 ft 8 kts 358°
2026-04-30 18:50 40.47057 -3.56463 1977 ft 8 kts 346°
2026-04-30 18:50 40.47108 -3.56484 1980 ft 8 kts 338°
2026-04-30 18:50 40.47155 -3.56517 1980 ft 8 kts 328°
2026-04-30 18:51 40.47200 -3.56558 1981 ft 8 kts 323°
2026-04-30 18:51 40.47241 -3.56601 1982 ft 7 kts 322°
2026-04-30 18:51 40.47275 -3.56637 1984 ft 5 kts 322°
2026-04-30 18:51 40.47305 -3.56668 1986 ft 7 kts 322°
2026-04-30 18:52 40.47353 -3.56717 1987 ft 9 kts 321°
2026-04-30 18:52 40.47364 -3.56793 1988 ft 10 kts 253°
2026-04-30 18:52 40.47386 -3.56868 1992 ft 9 kts 317°
2026-04-30 18:52 40.47419 -3.56903 1991 ft 9 kts 323°
2026-04-30 18:53 40.47470 -3.56953 1991 ft 9 kts 322°
2026-04-30 18:53 40.47519 -3.57004 1993 ft 9 kts 322°
2026-04-30 18:53 40.47568 -3.57054 1994 ft 8 kts 322°
2026-04-30 18:53 40.47612 -3.57099 1996 ft 8 kts 322°
2026-04-30 18:54 40.47666 -3.57154 1998 ft 11 kts 322°
2026-04-30 18:54 40.47733 -3.57222 2000 ft 13 kts 322°
2026-04-30 18:54 40.47812 -3.57302 2003 ft 15 kts 322°
2026-04-30 18:54 40.47892 -3.57383 2004 ft 15 kts 322°
2026-04-30 18:55 40.47980 -3.57473 2003 ft 17 kts 322°
2026-04-30 18:55 40.48170 -3.57665 1997 ft 13 kts 322°
2026-04-30 18:55 40.48252 -3.57748 1994 ft 17 kts 322°
2026-04-30 18:56 40.48347 -3.57844 1991 ft 13 kts 323°
2026-04-30 18:56 40.48425 -3.57911 1992 ft 14 kts 327°
2026-04-30 18:56 40.48506 -3.57978 1999 ft 15 kts 328°
2026-04-30 18:57 40.48707 -3.58046 2003 ft 16 kts 358°
2026-04-30 18:57 40.48819 -3.58049 2003 ft 12 kts
2026-04-30 18:57 40.48856 -3.57954 1999 ft 15 kts 89°
2026-04-30 18:58 40.48988 -3.57825 1995 ft 16 kts
2026-04-30 18:58 40.49101 -3.57825 1994 ft 13 kts
2026-04-30 18:58 40.49166 -3.57793 1993 ft 11 kts 63°
2026-04-30 18:59 40.49189 -3.57574 1988 ft 0 kts 65°
2026-04-30 19:01 40.49229 -3.57472 1984 ft 12 kts 47°
2026-04-30 19:01 40.49295 -3.57451 1983 ft 0 kts 358°
2026-04-30 19:04 40.50141 -3.57459 1988 ft 118 kts 360°
2026-04-30 19:04 40.52308 -3.57479 2138 ft 184 kts 359°
2026-04-30 19:05 40.55121 -3.57581 2846 ft 226 kts 357°
2026-04-30 19:05 40.57875 -3.59088 4434 ft 221 kts 297°
2026-04-30 19:06 40.59276 -3.62741 5791 ft 231 kts 317°
2026-04-30 19:06 40.60525 -3.64101 6520 ft 235 kts 320°
2026-04-30 19:06 40.63118 -3.66769 7959 ft 240 kts 329°
2026-04-30 19:07 40.66499 -3.67577 8933 ft 273 kts
2026-04-30 19:07 40.68458 -3.67271 9377 ft 290 kts
2026-04-30 19:08 40.72590 -3.66650 10397 ft 315 kts
2026-04-30 19:08 40.77263 -3.65978 10688 ft 360 kts
2026-04-30 19:08 40.79799 -3.65613 11062 ft 372 kts
2026-04-30 19:09 40.85010 -3.64863 12242 ft 381 kts
2026-04-30 19:09 40.87660 -3.64480 12856 ft 385 kts
2026-04-30 19:09 40.90342 -3.64090 13443 ft 390 kts
2026-04-30 19:10 40.95795 -3.63295 14511 ft 398 kts
2026-04-30 19:10 41.01343 -3.62484 15549 ft 404 kts
2026-04-30 19:11 41.04146 -3.62073 16076 ft 407 kts
2026-04-30 19:11 41.09814 -3.61250 17148 ft 412 kts
2026-04-30 19:11 41.12670 -3.60838 17704 ft 414 kts
2026-04-30 19:12 41.15545 -3.60394 18245 ft 417 kts
2026-04-30 19:12 41.18310 -3.59213 18696 ft 421 kts 26°
2026-04-30 19:12 41.20955 -3.57507 19157 ft 424 kts 22°
2026-04-30 19:13 41.26416 -3.54418 20083 ft 430 kts 23°
2026-04-30 19:13 41.31961 -3.51298 20987 ft 435 kts 22°
2026-04-30 19:13 41.34763 -3.49754 21411 ft 438 kts 22°
2026-04-30 19:14 41.37589 -3.48209 21819 ft 441 kts 22°
2026-04-30 19:14 41.40438 -3.46654 22217 ft 443 kts 21°
2026-04-30 19:14 41.43298 -3.45093 22620 ft 446 kts 21°
2026-04-30 19:14 41.46181 -3.43516 23004 ft 449 kts 21°
2026-04-30 19:15 41.49081 -3.41925 23361 ft 452 kts 21°
2026-04-30 19:15 41.54917 -3.38711 24081 ft 455 kts 22°
2026-04-30 19:15 41.57854 -3.37091 24407 ft 457 kts 22°
2026-04-30 19:16 41.60761 -3.35485 24716 ft 459 kts 22°
2026-04-30 19:16 41.63721 -3.33842 25046 ft 461 kts 22°
2026-04-30 19:16 41.69717 -3.30517 25689 ft 466 kts 22°
2026-04-30 19:17 41.72676 -3.28875 25999 ft 468 kts 22°
2026-04-30 19:17 41.78697 -3.25532 26814 ft 467 kts 21°
2026-04-30 19:17 41.81696 -3.23868 27284 ft 466 kts 22°
2026-04-30 19:18 41.86712 -3.21079 28027 ft 465 kts 21°
2026-04-30 19:18 41.90668 -3.18879 28630 ft 464 kts 21°
2026-04-30 19:18 41.93647 -3.17219 29083 ft 464 kts 21°
2026-04-30 19:19 41.96624 -3.15554 29561 ft 462 kts 21°
2026-04-30 19:19 41.99589 -3.13892 30050 ft 461 kts 21°
2026-04-30 19:19 42.05506 -3.10567 30857 ft 460 kts 21°
2026-04-30 19:20 42.08459 -3.08909 31241 ft 460 kts 21°
2026-04-30 19:20 42.11415 -3.07251 31622 ft 460 kts 21°
2026-04-30 19:20 42.17313 -3.03931 32402 ft 459 kts 21°
2026-04-30 19:21 42.20253 -3.02270 32802 ft 458 kts 21°
2026-04-30 19:21 42.26129 -2.98949 33595 ft 457 kts 21°
2026-04-30 19:22 42.32002 -2.95626 34111 ft 460 kts 21°
2026-04-30 19:22 42.41034 -2.90528 34127 ft 473 kts 20°
2026-04-30 19:23 42.50628 -2.88337 34128 ft 466 kts 355°
2026-04-30 19:24 42.60354 -2.88864 34133 ft 466 kts 355°
2026-04-30 19:25 42.76540 -2.89675 34148 ft 466 kts 355°
2026-04-30 19:26 42.89453 -2.90363 34152 ft 466 kts 355°
2026-04-30 19:27 42.99173 -2.90891 34172 ft 466 kts 354°
2026-04-30 19:28 43.08887 -2.91400 34187 ft 465 kts 354°
2026-04-30 19:29 43.21815 -2.92067 34190 ft 465 kts 354°
2026-04-30 19:30 43.34583 -2.93817 34185 ft 458 kts 343°
2026-04-30 19:31 43.47012 -2.97698 34191 ft 457 kts 343°
2026-04-30 19:31 43.56315 -3.00603 34184 ft 456 kts 343°
2026-04-30 19:32 43.62502 -3.02553 34189 ft 456 kts 343°
2026-04-30 19:32 43.68678 -3.04495 34186 ft 455 kts 343°
2026-04-30 19:33 43.74869 -3.06338 34183 ft 455 kts 345°
2026-04-30 19:33 43.81085 -3.08085 34178 ft 456 kts 345°
2026-04-30 19:34 43.87295 -3.09840 34179 ft 455 kts 345°
2026-04-30 19:35 43.96598 -3.12529 34173 ft 455 kts 345°
2026-04-30 19:35 44.02833 -3.14059 34183 ft 458 kts 353°
2026-04-30 19:36 44.08142 -3.13573 34183 ft 464 kts
2026-04-30 19:36 44.17463 -3.09668 34174 ft 467 kts 14°
2026-04-30 19:37 44.23664 -3.06958 34178 ft 466 kts 14°
2026-04-30 19:37 44.29853 -3.04252 34184 ft 466 kts 14°
2026-04-30 19:38 44.36032 -3.01548 34180 ft 465 kts 14°
2026-04-30 19:38 44.42191 -2.98842 34185 ft 463 kts 14°
2026-04-30 19:39 44.48329 -2.96149 34185 ft 462 kts 14°
2026-04-30 19:39 44.54457 -2.93451 34182 ft 461 kts 14°
2026-04-30 19:40 44.60575 -2.90742 34190 ft 461 kts 14°